This demonstration page uses our WeatherBlox Daily Observations layout. Learn more.

Left ArrowRight Arrow

39.29038, -76.61219

Hourly Observations for January 24, 2015

Temp ( °F °C ) Dew Point ( °F °C ) Humidity (%) Winds ( mph kmh ) Pressure ( in mb ) Visibility ( mi km ) Precip ( " mm )
12:54 am 00:54 undefined 33 0.6 32 0 96 96 undefined N/A 29.81 1010 N/A 0.16 4.06
1:54 am 01:54 undefined 33 0.6 33 0.6 100 100 undefined N/A 29.80 1009 N/A 0.19 4.83
2:54 am 02:54 undefined 33 0.6 32 0 96 96 undefined N/A 29.75 1008 N/A 0.14 3.56
3:54 am 03:54 undefined 33 0.6 33 0.6 100 100 undefined N/A 29.70 1006 N/A 0.07 1.78
4:54 am 04:54 undefined 33 0.6 33 0.6 100 100 undefined N/A 29.64 1004 N/A 0.01 0.25
5:54 am 05:54 undefined 34 1.1 34 1.1 100 100 undefined N/A 29.61 1003 N/A 0.03 0.76
6:54 am 06:54 undefined 34 1.1 33 0.6 97 97 undefined N/A 29.58 1002 N/A 0.01 0.25
7:54 am 07:54 undefined 34 1.1 34 1.1 100 100 undefined N/A 29.57 1002 N/A 0.00 0.00
8:54 am 08:54 undefined 34 1.1 34 1.1 100 100 undefined N/A 29.55 1001 N/A 0.01 0.25
9:54 am 09:54 undefined 35 1.7 33 0.6 93 93 undefined N/A 29.54 1000 N/A 0.00 0.00
10:54 am 10:54 undefined 36 2.2 34 1.1 93 93 undefined N/A 29.55 1001 N/A 0.00 0.00
11:54 am 11:54 undefined 37 2.8 34 1.1 89 89 undefined N/A 29.47 998 N/A 0.00 0.00
12:54 pm 12:54 undefined 37 2.8 34 1.1 89 89 undefined N/A 29.45 997 N/A 0.00 0.00
1:54 pm 13:54 undefined 37 2.8 33 0.6 86 86 undefined N/A 29.42 996 N/A 0.00 0.00
2:54 pm 14:54 undefined 38 3.3 34 1.1 86 86 undefined N/A 29.45 997 N/A 0.00 0.00
3:54 pm 15:54 undefined 39 3.9 31 -0.6 73 73 undefined N/A 29.46 998 N/A 0.00 0.00
4:54 pm 16:54 undefined 39 3.9 30 -1.1 70 70 undefined N/A 29.47 998 N/A 0.00 0.00
5:54 pm 17:54 undefined 38 3.3 29 -1.7 70 70 undefined N/A 29.50 999 N/A 0.00 0.00
7:54 pm 19:54 undefined 38 3.3 23 -5 55 55 undefined N/A 29.56 1001 N/A 0.00 0.00
8:54 pm 20:54 undefined 37 2.8 24 -4.4 59 59 undefined N/A 29.57 1001 N/A 0.00 0.00
9:54 pm 21:54 undefined 36 2.2 25 -3.9 64 64 undefined N/A 29.60 1002 N/A 0.00 0.00
10:54 pm 22:54 undefined 37 2.8 26 -3.3 65 65 undefined N/A 29.63 1003 N/A 0.00 0.00
11:54 pm 23:54 undefined 37 2.8 26 -3.3 65 65 undefined N/A 29.65 1004 N/A 0.00 0.00

Powered by AerisWeather